Time,TemperatureF,DewpointF,PressureIn,WindDirection,WindDirectionDegrees,WindSpeedMPH,WindSpeedGustMPH,Humidity,HourlyPrecipIn,Conditions,Clouds,dailyrainin,SoftwareType,DateUTC
2013-04-05 00:03:00,31.9,24.0,30.19,NW,313,6.0,-999.0,71,-99.99,,,0.00,weatherlink.com 1.10,2013-04-05 05:03:00,
2013-04-05 00:18:00,31.8,23.0,30.19,NNW,337,5.0,-999.0,71,-99.99,,,0.00,weatherlink.com 1.10,2013-04-05 05:18:00,
2013-04-05 00:32:00,31.5,24.0,30.20,NW,312,5.0,-999.0,72,-99.99,,,0.00,weatherlink.com 1.10,2013-04-05 05:32:00,
2013-04-05 00:47:00,31.2,23.0,30.20,NW,316,3.0,-999.0,72,-99.99,,,0.00,weatherlink.com 1.10,2013-04-05 05:47:00,
2013-04-05 01:01:00,31.0,23.0,30.20,NW,324,5.0,-999.0,72,-99.99,,,0.00,weatherlink.com 1.10,2013-04-05 06:01:00,
2013-04-05 01:15:00,30.7,23.0,30.20,NW,306,3.0,-999.0,73,-99.99,,,0.00,weatherlink.com 1.10,2013-04-05 06:15:00,
2013-04-05 01:30:00,30.3,23.0,30.20,NW,309,3.0,-999.0,74,-99.99,,,0.00,weatherlink.com 1.10,2013-04-05 06:30:00,
2013-04-05 01:44:00,30.2,23.0,30.21,WNW,284,3.0,-999.0,74,-99.99,,,0.00,weatherlink.com 1.10,2013-04-05 06:44:00,
2013-04-05 02:13:00,29.9,23.0,30.21,NW,314,2.0,-999.0,74,-99.99,,,0.00,weatherlink.com 1.10,2013-04-05 07:13:00,
2013-04-05 02:27:00,29.7,22.0,30.21,NW,313,3.0,-999.0,74,-99.99,,,0.00,weatherlink.com 1.10,2013-04-05 07:27:00,
2013-04-05 02:41:00,29.4,22.0,30.21,NW,315,4.0,-999.0,74,-99.99,,,0.00,weatherlink.com 1.10,2013-04-05 07:41:00,
2013-04-05 02:56:00,29.2,22.0,30.21,NNW,345,3.0,-999.0,74,-99.99,,,0.00,weatherlink.com 1.10,2013-04-05 07:56:00,
2013-04-05 03:10:00,28.8,22.0,30.21,NW,320,3.0,-999.0,75,-99.99,,,0.00,weatherlink.com 1.10,2013-04-05 08:10:00,
2013-04-05 03:24:00,28.5,22.0,30.21,North,349,2.0,-999.0,75,-99.99,,,0.00,weatherlink.com 1.10,2013-04-05 08:24:00,
2013-04-05 03:39:00,28.1,21.0,30.22,NNW,348,1.0,-999.0,75,-99.99,,,0.00,weatherlink.com 1.10,2013-04-05 08:39:00,
2013-04-05 03:53:00,27.9,21.0,30.23,NNW,333,2.0,-999.0,76,-99.99,,,0.00,weatherlink.com 1.10,2013-04-05 08:53:00,
2013-04-05 04:07:00,27.9,21.0,30.23,NW,313,3.0,-999.0,76,-99.99,,,0.00,weatherlink.com 1.10,2013-04-05 09:07:00,
2013-04-05 04:21:00,27.8,21.0,30.23,NNW,345,3.0,-999.0,76,-99.99,,,0.00,weatherlink.com 1.10,2013-04-05 09:21:00,
2013-04-05 04:50:00,27.5,23.0,30.24,NW,324,2.0,-999.0,82,-99.99,,,0.00,weatherlink.com 1.10,2013-04-05 09:50:00,
2013-04-05 05:04:00,27.2,21.0,30.24,NNW,332,2.0,-999.0,76,-99.99,,,0.00,weatherlink.com 1.10,2013-04-05 10:04:00,
2013-04-05 05:18:00,27.1,21.0,30.24,NNW,333,1.0,-999.0,76,-99.99,,,0.00,weatherlink.com 1.10,2013-04-05 10:18:00,
2013-04-05 05:33:00,26.8,20.0,30.24,North,350,2.0,-999.0,76,-99.99,,,0.00,weatherlink.com 1.10,2013-04-05 10:33:00,
2013-04-05 05:47:00,26.6,20.0,30.24,North,350,1.0,-999.0,76,-99.99,,,0.00,weatherlink.com 1.10,2013-04-05 10:47:00,
2013-04-05 06:01:00,26.3,20.0,30.24,North,351,3.0,-999.0,76,-99.99,,,0.00,weatherlink.com 1.10,2013-04-05 11:01:00,
2013-04-05 06:16:00,26.2,20.0,30.24,North,351,2.0,-999.0,76,-99.99,,,0.00,weatherlink.com 1.10,2013-04-05 11:16:00,
2013-04-05 06:30:00,26.0,19.0,30.24,North,352,0.0,-999.0,76,-99.99,,,0.00,weatherlink.com 1.10,2013-04-05 11:30:00,
2013-04-05 06:44:00,25.8,19.0,30.25,North,352,0.0,-999.0,76,-99.99,,,0.00,weatherlink.com 1.10,2013-04-05 11:44:00,
2013-04-05 07:13:00,26.1,19.0,30.25,North,4,2.0,-999.0,75,-99.99,,,0.00,weatherlink.com 1.10,2013-04-05 12:13:00,
2013-04-05 07:27:00,26.9,19.0,30.25,NNE,25,0.0,-999.0,73,-99.99,,,0.00,weatherlink.com 1.10,2013-04-05 12:27:00,
2013-04-05 07:42:00,27.6,19.0,30.25,NNE,29,2.0,-999.0,71,-99.99,,,0.00,weatherlink.com 1.10,2013-04-05 12:42:00,
2013-04-05 07:56:00,28.5,20.0,30.25,ENE,77,1.0,-999.0,71,-99.99,,,0.00,weatherlink.com 1.10,2013-04-05 12:56:00,
2013-04-05 08:10:00,29.2,20.0,30.24,ESE,106,2.0,-999.0,68,-99.99,,,0.00,weatherlink.com 1.10,2013-04-05 13:10:00,
2013-04-05 08:24:00,29.9,20.0,30.24,East,87,6.0,-999.0,67,-99.99,,,0.00,weatherlink.com 1.10,2013-04-05 13:24:00,
2013-04-05 08:53:00,31.2,20.0,30.24,East,96,2.0,-999.0,63,-99.99,,,0.00,weatherlink.com 1.10,2013-04-05 13:53:00,
2013-04-05 09:07:00,32.6,21.0,30.23,East,84,1.0,-999.0,63,-99.99,,,0.00,weatherlink.com 1.10,2013-04-05 14:07:00,
2013-04-05 09:21:00,33.5,20.0,30.23,East,80,7.0,-999.0,58,-99.99,,,0.00,weatherlink.com 1.10,2013-04-05 14:21:00,
2013-04-05 09:36:00,35.0,21.0,30.23,East,89,4.0,-999.0,56,-99.99,,,0.00,weatherlink.com 1.10,2013-04-05 14:36:00,
2013-04-05 09:50:00,36.0,21.0,30.23,ENE,60,7.0,-999.0,53,-99.99,,,0.00,weatherlink.com 1.10,2013-04-05 14:50:00,
2013-04-05 10:04:00,36.6,21.0,30.22,ESE,108,5.0,-999.0,52,-99.99,,,0.00,weatherlink.com 1.10,2013-04-05 15:04:00,
2013-04-05 10:19:00,36.9,20.0,30.23,East,87,5.0,-999.0,51,-99.99,,,0.00,weatherlink.com 1.10,2013-04-05 15:19:00,
2013-04-05 10:33:00,37.1,21.0,30.23,East,91,6.0,-999.0,51,-99.99,,,0.00,weatherlink.com 1.10,2013-04-05 15:33:00,
2013-04-05 10:47:00,37.1,21.0,30.23,SE,135,6.0,-999.0,52,-99.99,,,0.00,weatherlink.com 1.10,2013-04-05 15:47:00,
2013-04-05 11:01:00,38.3,23.0,30.23,ENE,71,4.0,-999.0,53,-99.99,,,0.00,weatherlink.com 1.10,2013-04-05 16:01:00,
2013-04-05 11:16:00,38.5,21.0,30.23,ESE,108,7.0,-999.0,49,-99.99,,,0.00,weatherlink.com 1.10,2013-04-05 16:16:00,
2013-04-05 11:30:00,38.7,21.0,30.21,East,95,7.0,-999.0,49,-99.99,,,0.00,weatherlink.com 1.10,2013-04-05 16:30:00,
2013-04-05 11:44:00,39.1,22.0,30.21,ENE,73,9.0,-999.0,49,-99.99,,,0.00,weatherlink.com 1.10,2013-04-05 16:44:00,
2013-04-05 11:58:00,39.9,22.0,30.20,SE,131,7.0,-999.0,48,-99.99,,,0.00,weatherlink.com 1.10,2013-04-05 16:58:00,
2013-04-05 12:13:00,40.2,23.0,30.20,SE,140,12.0,-999.0,51,-99.99,,,0.00,weatherlink.com 1.10,2013-04-05 17:13:00,
2013-04-05 12:27:00,40.5,22.0,30.18,ESE,114,7.0,-999.0,47,-99.99,,,0.00,weatherlink.com 1.10,2013-04-05 17:27:00,
2013-04-05 12:41:00,40.1,22.0,30.17,SE,134,10.0,-999.0,49,-99.99,,,0.00,weatherlink.com 1.10,2013-04-05 17:41:00,
2013-04-05 13:10:00,39.9,24.0,30.18,SE,136,5.0,-999.0,52,-99.99,,,0.00,weatherlink.com 1.10,2013-04-05 18:10:00,
2013-04-05 13:24:00,40.1,24.0,30.18,ESE,108,5.0,-999.0,52,-99.99,,,0.00,weatherlink.com 1.10,2013-04-05 18:24:00,
2013-04-05 13:39:00,40.2,23.0,30.18,ESE,116,8.0,-999.0,51,-99.99,,,0.00,weatherlink.com 1.10,2013-04-05 18:39:00,
2013-04-05 13:53:00,40.1,24.0,30.17,ESE,114,6.0,-999.0,52,-99.99,,,0.00,weatherlink.com 1.10,2013-04-05 18:53:00,
2013-04-05 14:07:00,39.6,24.0,30.17,East,93,7.0,-999.0,53,-99.99,,,0.00,weatherlink.com 1.10,2013-04-05 19:07:00,
2013-04-05 14:22:00,38.0,28.0,30.18,SSE,152,3.0,-999.0,66,-99.99,,,0.00,weatherlink.com 1.10,2013-04-05 19:22:00,
2013-04-05 14:50:00,35.2,29.0,30.16,ENE,73,3.0,-999.0,77,-99.99,,,0.00,weatherlink.com 1.10,2013-04-05 19:50:00,
2013-04-05 15:04:00,34.7,29.0,30.15,ENE,78,3.0,-999.0,80,-99.99,,,0.00,weatherlink.com 1.10,2013-04-05 20:04:00,
2013-04-05 15:19:00,34.8,30.0,30.16,ESE,118,4.0,-999.0,82,-99.99,,,0.00,weatherlink.com 1.10,2013-04-05 20:19:00,
2013-04-05 15:33:00,34.1,30.0,30.14,ESE,112,4.0,-999.0,84,-99.99,,,0.00,weatherlink.com 1.10,2013-04-05 20:33:00,
2013-04-05 15:47:00,33.6,30.0,30.12,East,87,3.0,-999.0,87,-99.99,,,0.00,weatherlink.com 1.10,2013-04-05 20:47:00,
2013-04-05 16:01:00,33.4,30.0,30.11,ENE,64,7.0,-999.0,87,-99.99,,,0.00,weatherlink.com 1.10,2013-04-05 21:01:00,
2013-04-05 16:30:00,33.7,31.0,30.10,East,99,6.0,-999.0,89,-99.99,,,0.02,weatherlink.com 1.10,2013-04-05 21:30:00,
2013-04-05 16:44:00,33.7,31.0,30.09,East,80,5.0,-999.0,89,-99.99,,,0.03,weatherlink.com 1.10,2013-04-05 21:44:00,
2013-04-05 17:13:00,33.9,31.0,30.07,ENE,71,6.0,-999.0,89,-99.99,,,0.04,weatherlink.com 1.10,2013-04-05 22:13:00,
2013-04-05 17:27:00,34.0,31.0,30.06,East,87,7.0,-999.0,89,-99.99,,,0.04,weatherlink.com 1.10,2013-04-05 22:27:00,
2013-04-05 17:41:00,34.2,31.0,30.04,East,87,11.0,-999.0,89,-99.99,,,0.04,weatherlink.com 1.10,2013-04-05 22:41:00,
2013-04-05 17:56:00,34.3,31.0,30.04,NE,56,7.0,-999.0,89,-99.99,,,0.04,weatherlink.com 1.10,2013-04-05 22:56:00,
2013-04-05 18:10:00,34.4,31.0,30.05,ENE,72,10.0,-999.0,89,-99.99,,,0.04,weatherlink.com 1.10,2013-04-05 23:10:00,
2013-04-05 18:24:00,34.4,31.0,30.03,ENE,73,11.0,-999.0,88,-99.99,,,0.04,weatherlink.com 1.10,2013-04-05 23:24:00,
2013-04-05 18:39:00,34.4,31.0,30.04,East,89,12.0,-999.0,88,-99.99,,,0.04,weatherlink.com 1.10,2013-04-05 23:39:00,
2013-04-05 18:53:00,34.4,31.0,30.01,East,84,10.0,-999.0,88,-99.99,,,0.04,weatherlink.com 1.10,2013-04-05 23:53:00,
2013-04-05 19:07:00,34.6,31.0,30.01,East,79,18.0,-999.0,87,-99.99,,,0.04,weatherlink.com 1.10,2013-04-06 00:07:00,
2013-04-05 19:22:00,34.7,31.0,30.01,ESE,104,9.0,-999.0,87,-99.99,,,0.04,weatherlink.com 1.10,2013-04-06 00:22:00,
2013-04-05 19:36:00,34.8,31.0,30.01,SE,124,7.0,-999.0,87,-99.99,,,0.04,weatherlink.com 1.10,2013-04-06 00:36:00,
2013-04-05 19:50:00,34.8,31.0,30.02,ENE,77,5.0,-999.0,86,-99.99,,,0.04,weatherlink.com 1.10,2013-04-06 00:50:00,
2013-04-05 20:05:00,34.8,31.0,30.01,East,93,6.0,-999.0,86,-99.99,,,0.04,weatherlink.com 1.10,2013-04-06 01:05:00,
2013-04-05 20:19:00,34.7,31.0,30.00,ESE,107,5.0,-999.0,86,-99.99,,,0.04,weatherlink.com 1.10,2013-04-06 01:19:00,
2013-04-05 20:33:00,34.8,31.0,30.00,East,79,8.0,-999.0,86,-99.99,,,0.04,weatherlink.com 1.10,2013-04-06 01:33:00,
2013-04-05 20:47:00,34.8,31.0,29.99,ENE,71,9.0,-999.0,86,-99.99,,,0.04,weatherlink.com 1.10,2013-04-06 01:47:00,
2013-04-05 21:01:00,34.9,31.0,29.99,ESE,107,12.0,-999.0,86,-99.99,,,0.04,weatherlink.com 1.10,2013-04-06 02:01:00,
2013-04-05 21:16:00,34.9,31.0,29.98,East,93,13.0,-999.0,86,-99.99,,,0.04,weatherlink.com 1.10,2013-04-06 02:16:00,
2013-04-05 21:30:00,34.9,31.0,29.97,East,93,6.0,-999.0,86,-99.99,,,0.04,weatherlink.com 1.10,2013-04-06 02:30:00,
2013-04-05 21:44:00,34.9,31.0,29.96,ENE,75,12.0,-999.0,86,-99.99,,,0.04,weatherlink.com 1.10,2013-04-06 02:44:00,
2013-04-05 21:59:00,35.0,31.0,29.95,East,87,9.0,-999.0,86,-99.99,,,0.04,weatherlink.com 1.10,2013-04-06 02:59:00,
2013-04-05 22:13:00,35.0,31.0,29.94,ESE,106,7.0,-999.0,86,-99.99,,,0.04,weatherlink.com 1.10,2013-04-06 03:13:00,
2013-04-05 22:27:00,35.1,31.0,29.93,ENE,75,13.0,-999.0,85,-99.99,,,0.04,weatherlink.com 1.10,2013-04-06 03:27:00,
2013-04-05 22:41:00,35.2,31.0,29.92,ESE,118,10.0,-999.0,85,-99.99,,,0.04,weatherlink.com 1.10,2013-04-06 03:41:00,
2013-04-05 23:10:00,35.7,31.0,29.89,SE,133,7.0,-999.0,83,-99.99,,,0.04,weatherlink.com 1.10,2013-04-06 04:10:00,
2013-04-05 23:24:00,35.9,31.0,29.88,East,93,12.0,-999.0,83,-99.99,,,0.04,weatherlink.com 1.10,2013-04-06 04:24:00,
2013-04-05 23:39:00,35.7,31.0,29.87,ENE,76,12.0,-999.0,83,-99.99,,,0.04,weatherlink.com 1.10,2013-04-06 04:39:00,
2013-04-05 23:53:00,35.7,31.0,29.86,East,79,12.0,-999.0,83,-99.99,,,0.04,weatherlink.com 1.10,2013-04-06 04:53:00,